Location: Columbus
(29.5618°N, 96.6770°W)
Time: 02:22:40
(UTC-05:00)

Daily predictions for brighter satellites

Satellite Brightness Start Highest point End
(mag) Time Altitude Azimuth Time Altitude Azimuth Time Altitude Azimuth
Cosmos 2082 Rocket 4.3 00:06:10 10° NW 00:08:39 19° WNW 00:08:39 19° WNW
Terra 4.4 00:18:59 16° NW 00:18:59 16° NW 00:20:09 10° NW
NOSS 3-1 (C) 4.4 00:18:15 10° NNW 00:24:23 59° NNW 00:24:23 59° NNW
USA 234 4.5 00:23:59 10° NNE 00:29:49 36° NW 00:31:10 33° WNW
Cosmos 2369 Rocket 4.4 00:53:08 20° NNW 00:53:08 20° NNW 00:55:33 10° N
ATLAS 2AS CENTAUR R/B 4.1 02:01:24 10° NNW 02:05:36 34° NW 02:05:36 34° NW
Cosmos 1980 Rocket 4.4 02:46:20 18° ENE 02:46:20 18° ENE 02:48:18 10° NE
Cosmos 2227 Rocket 4.0 02:51:21 10° N 02:53:53 26° N 02:53:53 26° N
Cosmos 2297 Rocket 3.6 03:12:16 10° NNW 03:15:22 33° N 03:15:22 33° N
SL-16 R/B 4.1 03:32:03 20° ESE 03:32:06 20° E 03:36:10 10° NE
ATLAS CENTAUR R/B 4.1 03:34:29 18° NNW 03:34:29 18° NNW 03:36:23 10° N
NOSS 3-4 (A) 4.3 03:25:26 10° NNW 03:32:26 57° ENE 03:36:03 31° ESE
NOSS 3-4 (C) 4.3 03:25:33 10° NNW 03:32:35 57° ENE 03:36:32 28° SE
Nadezhda 4 Rocket 4.0 03:46:23 10° N 03:52:16 77° NE 03:52:16 77° NE
CZ-2D R/B 2.6 03:52:40 10° NNE 03:57:38 58° E 03:57:38 58° E
Cosmos 540 Rocket 4.2 03:58:42 50° ENE 03:58:42 50° ENE 04:03:05 10° NNE
Meteor 1-24 Rocket 4.1 03:53:55 10° N 03:58:37 60° NNW 03:58:37 60° NNW
SL-16 R/B 3.0 03:59:05 37° SE 04:01:17 56° ENE 04:07:17 10° N
ARIANE 5 R/B 2.9 04:00:37 10° N 04:04:48 59° N 04:04:48 59° N
Cosmos 1697 Rocket 4.1 04:19:13 24° NW 04:19:13 24° NW 04:23:00 10° N
Cosmos 1953 3.9 04:20:15 31° N 04:20:15 31° N 04:22:27 10° N
In-Cosmos 22 4.3 04:13:10 10° N 04:18:25 64° E 04:19:24 53° SE
ATLAS CENTAUR R/B 4.0 04:18:34 50° SW 04:21:38 84° NW 04:46:53 10° NE
Cosmos 1634 Rocket 3.8 04:25:23 67° WSW 04:25:58 71° W 04:32:15 10° N
Cosmos 1980 Rocket 3.1 04:28:07 35° NW 04:28:07 35° NW 04:32:51 10° N
Cosmos 2360 Rocket 4.1 04:25:10 14° SE 04:28:29 23° ESE 04:32:51 10° NE
Resurs 1-4 Rocket 2.1 04:24:52 10° N 04:29:56 63° WNW 04:29:56 63° WNW
Cosmos 2195 Rocket 4.5 04:28:34 10° N 04:34:41 79° E 04:37:52 30° SSE
Cosmos 1674 4.4 04:33:14 10° NNE 04:36:35 31° E 04:38:08 22° ESE
IRS-1D 4.2 04:33:20 10° N 04:37:26 38° WNW 04:37:26 38° WNW
Cosmos 2322 Rocket 2.0 04:39:52 62° SW 04:40:48 79° WNW 04:46:26 10° NNE
Cosmos 332 Rocket 4.0 04:41:26 53° WNW 04:41:26 53° WNW 04:45:56 10° N
Cosmos 1092 Rocket 4.2 04:38:35 10° NNW 04:44:39 50° W 04:45:29 47° WSW
Meteor 1-21 Rocket 4.2 04:41:07 10° N 04:47:04 83° W 04:50:09 30° S
Cosmos 1500 Rocket 3.7 04:43:28 10° N 04:47:49 69° E 04:49:22 38° SSE
Cosmos 1627 Rocket 4.4 04:46:47 10° N 04:53:00 73° W 04:56:18 29° S
Cosmos 1743 Rocket 3.5 04:49:24 10° NNW 04:53:41 63° W 04:53:41 63° W
UNK 4.3 04:55:42 40° WNW 04:55:42 40° WNW 04:59:27 10° NNW
Cosmos 2221 3.7 04:54:00 18° SSE 04:56:43 40° E 05:00:44 10° NNE
Cosmos 371 Rocket 3.4 04:59:12 48° WSW 04:59:53 52° WNW 05:04:35 10° N
Aureole 1 Rocket 4.2 05:01:14 38° WSW 05:03:05 50° WNW 05:10:05 10° N
Cosmos 372 Rocket 3.9 04:58:49 10° NNW 05:03:55 83° ENE 05:09:01 10° SSE
Milstar 3 Cent rocket 2.4 05:02:11 35° W 05:04:35 76° S 05:13:09 10° ESE
RESURS DK-1 2.5 05:00:58 10° NNW 05:05:05 74° ENE 05:09:12 10° SSE
Cosmos 1470 2.9 05:05:07 52° W 05:05:11 52° W 05:09:04 10° N
GPS 2-04 Rocket1 3.3 05:04:39 25° NW 05:06:48 55° NNE 05:10:34 10° E
USA 81 4.4 05:06:35 39° WSW 05:07:46 45° W 05:12:48 10° NNW
CZ-2C R/B 3.8 05:05:05 10° SSE 05:09:47 79° ENE 05:14:25 10° N
Okean O Rocket 1.7 05:06:42 10° N 05:11:04 60° WNW 05:12:26 40° SW
Delta 2 Rocket 3.0 05:13:39 53° SSW 05:14:14 64° SSE 05:18:00 10° ENE
SL-16 R/B 2.8 05:13:56 31° WSW 05:15:50 40° WNW 05:21:08 10° N
Cosmos 2279 Rocket 4.3 05:14:57 29° SW 05:17:41 45° W 05:23:38 10° N
PSLV R/B 4.4 05:19:31 10° N 05:23:00 35° WNW 05:23:37 33° W
Hubble Space Telescope 2.8 05:22:31 15° S 05:23:47 17° SSE 05:26:28 10° ESE
GRACE-1 3.9 05:22:57 35° S 05:24:01 84° E 05:26:54 10° N
GRACE-2 3.9 05:23:21 34° S 05:24:27 85° E 05:27:20 10° N
Cosmos 1125 Rocket 4.2 05:21:10 10° NW 05:25:41 31° W 05:27:16 26° SW
Abrixas 2.4 05:23:24 15° NW 05:25:49 88° SW 05:28:52 10° SE
DELTA 2 R/B (1) 4.3 05:22:53 20° W 05:26:28 46° NNW 05:31:50 10° NE
OTV 4 2.4 05:26:06 17° SSE 05:26:50 18° SE 05:28:58 10° E
COSMOS 2428 4.1 05:22:28 10° S 05:27:36 37° ESE 05:32:44 10° NE
GPS 2-12 Rocket1 4.3 05:28:14 22° SSW 05:29:03 23° S 05:32:36 10° SE
PSLV R/B 4.0 05:25:33 10° NNE 05:29:47 62° ESE 05:34:00 10° S
Cosmos 2263 Rocket 3.1 05:26:08 10° N 05:31:33 51° ENE 05:36:55 10° SE
CZ-3A R/B 4.2 05:26:12 14° SSW 05:31:44 66° ESE 06:10:21 10° NE
Centaur D-1A AC-31 3.2 05:15:58 18° WSW 05:35:20 67° S 05:40:32 10° E
ADEOS II 2.6 05:30:31 10° NNE 05:35:42 58° E 05:40:52 10° S
Cosmos 1461 3.1 05:32:05 10° NW 05:35:53 41° WSW 05:39:35 10° S
Cosmos 2322 3.7 05:31:55 16° SSW 05:36:33 79° WNW 05:42:18 10° NNE
CZ-2D R/B 4.0 05:34:55 10° NW 05:37:29 14° WNW 05:38:58 12° W
Cosmos 1733 4.4 05:37:05 22° W 05:37:42 23° W 05:40:48 10° NNW
CZ-4B R/B 3.7 05:37:48 10° N 05:42:55 41° WNW 05:46:52 16° SW
Meteor 1-31 Rocket 4.4 05:40:36 10° NNE 05:44:07 34° E 05:47:38 10° SSE
SL-16 R/B 3.9 05:44:10 16° WSW 05:45:08 17° W 05:48:53 10° WNW
GEOS 3 Rocket 3.8 05:41:46 10° SSE 05:46:49 49° WSW 05:51:51 10° NW
CZ-4B R/B 3.7 05:44:37 10° NNW 05:47:53 28° WNW 05:49:45 18° WSW
Cosmos 1805 Rocket 3.5 05:44:48 10° N 05:49:10 89° E 05:53:33 10° S
Cosmos 2266 Rocket 4.0 05:44:51 10° N 05:51:03 82° W 05:57:21 10° S
Meteor 2-20 Rocket 4.4 05:46:09 10° N 05:52:13 71° W 05:58:16 10° S
CZ-3 R/B 3.0 05:29:15 12° WSW 05:57:16 81° S 06:03:42 10° E
Cosmos 967 Rocket 4.5 05:52:11 10° NNW 05:58:26 63° WSW 06:04:35 10° SSE
Okean-O 2.8 05:55:48 10° N 06:00:07 53° WNW 06:04:24 10° SSW
Sich 1 3.3 05:55:59 10° N 06:00:19 73° E 06:04:40 10° S
Aureole 3 4.2 05:55:30 10° NNW 06:00:26 69° W 06:06:45 10° S
Cosmos 2151 3.8 05:57:40 10° NNW 06:01:26 30° W 06:05:10 10° SSW
Cosmos 1680 Rocket 3.5 05:57:16 10° SSW 06:02:26 66° WNW 06:07:38 10° N
Cosmos 304 Rocket 4.2 05:58:00 10° SW 06:02:29 44° WNW 06:07:05 10° N
Cosmos 1515 Rocket 4.5 05:58:29 10° S 06:02:47 52° E 06:07:04 10° NNE
USA 116 3.1 06:03:07 10° S 06:06:13 80° WSW 06:09:35 10° NNW
Aurora 2 Rocket 3.7 06:05:24 11° SW 06:06:39 13° SSW 06:08:13 10° SSE
Alouette 2 Rocket 3.7 06:02:45 10° NNW 06:06:39 77° W 06:12:05 10° S
Thor Agena Rocket 4.1 06:05:47 10° SSW 06:10:22 35° W 06:14:59 10° NNW
Delta 128 3.6 06:06:06 10° W 06:10:35 72° S 06:15:29 10° E
Cosmos 1328 Rocket 3.6 06:06:38 10° S 06:11:04 87° W 06:15:31 10° N
Cosmos 2360 Rocket 3.0 06:07:08 10° SW 06:12:11 34° WNW 06:17:17 10° N
Cosmos 1666 Rocket 3.6 06:13:10 10° NNW 06:17:27 57° W 06:21:41 10° S
Cosmos 405 3.0 06:17:00 10° S 06:20:37 77° W 06:24:13 10° N
